Location: C&O Canal National Historical Park
(39.6184°N, 77.9938°W)
Time: 21:13:06
(UTC-05:00)

ISS - Visible Passes

Search period start: 13 December 2018 00:00
Search period end: 23 December 2018 00:00
Orbit: 401 x 408 km, 51.6° (Epoch: 14 December)

Date Brightness Start Highest point End Pass type
(mag) Time Alt. Az. Time Alt. Az. Time Alt. Az.
13 Dec -1.5 18:19:01 10° WNW 18:21:46 25° SW 18:24:30 10° S visible
14 Dec -2.9 17:26:32 10° WNW 17:29:42 51° SW 17:32:52 10° SE visible
15 Dec 0.0 18:13:11 10° WSW 18:13:35 10° SW 18:13:58 10° SW visible
16 Dec -0.7 17:19:08 10° W 17:21:36 20° SW 17:24:04 10° S visible
21 Dec -0.3 06:30:44 10° SSE 06:32:12 12° SE 06:33:40 10° ESE visible
